Tracking 28790 objects as of 19-Apr-2024
HD Live streaming from Space Station
objects crossing your sky now

COSMOS 588

Track COSMOS 588 now!
10-day predictions
COSMOS 588 is classified as:


NORAD ID: 6845
Int'l Code: 1973-069A
Perigee: 1,454.6 km
Apogee: 1,500.3 km
Inclination: 74.0 °
Period: 115.3 minutes
Semi major axis: 7848 km
RCS: 0.707 m2 (medium)
Launch date: October 2, 1973
Source: Commonwealth of Independent States (former USSR) (CIS)
Launch site: PLESETSK MISSILE AND SPACE COMPLEX (PKMTR)
Your satellite tracking list
Your tracking list is empty




NASA's NSSDC Master Catalog

Two Line Element Set (TLE):
1  6845U 73069A   24110.08113375  .00000017  00000-0  22102-3 0  9992
2  6845  74.0007 319.2864 0029138 254.6752 224.2336 12.48617361304086
Source of the keplerian elements: AFSPC